Regional Weather Roundup
Issued by NWS

Home | Current Version | Previous Version | Text Only | Print | Product List | Glossary On
Versions: 1 2 3 4 5 6 7 8 9 10 11 12 13 14 15 16 17 18 19 20 21 22 23 24 25 26 27 28 29 30 31 32 33 34 35 36 37 38 39 40 41 42 43 44 45 46 47 48 49 50
000
ASUS43 KDTX 211910
RWRMI
MICHIGAN HOURLY REGIONAL WEATHER ROUNDUP
NATIONAL WEATHER SERVICE DETROIT/PONTIAC MI
200 PM EST SAT JAN 21 2017

NOTE: "FAIR" INDICATES FEW OR NO CLOUDS BELOW 12,000 FEET WITH NO
SIGNIFICANT WEATHER AND/OR OBSTRUCTION TO VISIBILITY.

MIZ047>049-052>055-059>063-066>070-074>076-081>083-212000-
SOUTHEAST LOWER MICHIGAN

CITY           SKY/WX    TMP DP  RH WIND       PRES   REMARKS
ADRIAN         CLOUDY    56  52  86 S10       29.61F
ALMA           FOG       47  46  97 NE5       29.58F VSB<1/4
ANN ARBOR      CLOUDY    55  52  89 S9        29.61F
BAD AXE        FOG       43  43 100 S3        29.63S VSB 1/4
CARO           CLOUDY    48  48  98 SE5       29.61S FOG
DETROIT CITY   MOSUNNY   57  51  80 S6        29.62F
DETROIT        PTSUNNY   58  52  80 S8        29.63F
FLINT          CLOUDY    50  48  93 S7        29.61F FOG
GROSSE ILE     MOSUNNY   43  41  95 S5        29.63S FOG
HILLSDALE      CLOUDY    54  50  87 S9        29.58F
HOWELL         CLOUDY    50  49  95 S7        29.60F FOG

CITY           SKY/WX    TMP DP  RH WIND       PRES   REMARKS
JACKSON        CLOUDY    56  50  80 SE13      29.58F
LAMBERTVILLE   MOSUNNY   59  52  77 SW8       29.61F
LANSING        CLOUDY    52  49  89 S8        29.58F FOG
LAPEER         CLOUDY    49  49  98 CALM      29.62S FOG
MASON          CLOUDY    50  50 100 S8        29.58F FOG
MONROE         PTSUNNY   58  53  85 S6        29.61F
MT. CLEMENS    CLOUDY    44  44 100 E5        29.61F FOG
PONTIAC        FOG       47  47 100 SE5       29.61S VSB 1/4
PORT HOPE        N/A     43  42  97 VRB5      29.61F
PORT HURON     MOSUNNY   54  52  94 S6        29.63F
TRI CITIES     FOG       47  47 100 SE7       29.60F VSB 1/16
MIDLAND        FOG       43  42  96 E3        29.59F VSB<1/4
TROY           SUNNY     52  49  92 CALM      29.64F FOG
SAGINAW HB     FOG       46  45  93 E3        29.60F VSB 1/4
$$
MIZ043>046-050>051-056>058-064>065-071>073-077>080-212000-
SOUTHWEST LOWER MICHIGAN

CITY           SKY/WX    TMP DP  RH WIND       PRES   REMARKS
BATTLE CREEK   SUNNY     57  51  80 S15       29.56F
BENTON HARBOR  SUNNY     60  49  66 S15G22    29.49F
BIG RAPIDS     FOG       43  42  97 SE7       29.53F VSB 1/4
COLDWATER      CLOUDY    58  53  82 S9        29.57F
FREMONT        CLOUDY    49  49 100 SE6       29.50F FOG
HOLLAND        SUNNY     60  49  66 S15       29.50F
GRAND RAPIDS   PTSUNNY   59  51  75 SE10      29.52F
IONIA          PTSUNNY   51  51 100 SE13      29.54F FOG
KALAMAZOO      SUNNY     59  50  72 S8        29.55F
LUDINGTON      CLOUDY    46  46 100 SE3       29.49F FOG
MARSHALL       SUNNY     57  52  84 SE7       29.56F
MOUNT PLEASANT FOG       43  43  99 CALM      29.57F VSB<1/4
MUSKEGON       MOSUNNY   58  51  78 SE9       29.49F
SOUTH HAVEN    SUNNY     60  51  72 S9G17     29.50F
$$
MIZ016>042-212000-
NORTHERN LOWER MICHIGAN

CITY           SKY/WX    TMP DP  RH WIND       PRES   REMARKS
ALPENA         FOG       37  36  96 E8        29.62F VSB 1   WCI  31
BEAVER ISLAND  CLOUDY    35  35  99 E8        29.57F WCI  29
BELLAIRE       CLOUDY    43  42  97 CALM      29.55F
CADILLAC       FOG       38  37  97 E8        29.53F VSB<1/4 WCI  32
CHARLEVOIX     CLOUDY    41  40  98 E7        29.58F
FRANKFORT      CLOUDY    45  44  98 E3        29.50F FOG
GAYLORD        CLOUDY    40  36  86 SE7       29.56F FOG
GRAYLING       FOG       39  38  98 E6        29.58F VSB<1/4 WCI  35
HARBOR SPRINGS CLOUDY    38  37  94 E8        29.58F WCI  32
HOUGHTON LAKE  FOG       40  40 100 E7        29.57F VSB 1/4
MANISTEE       CLOUDY    45  44  97 SE6       29.50F FOG
OSCODA         FOG       41  40  97 CALM      29.62S VSB 1/4
PELLSTON       CLOUDY    36  33  89 SE3       29.59F FOG
ROGERS CITY    CLOUDY    37  36  96 CALM      29.62F FOG
TRAVERSE CITY  CLOUDY    45  41  86 SE6       29.52F
$$
MIZ007>008-015-212000-
EASTERN UPPER MICHIGAN

CITY           SKY/WX    TMP DP  RH WIND       PRES   REMARKS
KINROSS        FOG       34  34 100 E8        29.62F VSB 1/4 WCI  27
MACKINAC ISLAN FOG       33  33 100 E13G20    29.59F VSB 1/2 WCI  24
NEWBERRY       CLOUDY    35  34  96 E9        29.57F FOG     WCI  27
S. S. MARIE    FOG       35  33  92 E7        29.62F VSB 3/4 WCI  29
MUNISING         N/A     37  35  92 CALM      29.54F
$$
MIZ004>006-011>014-085-212000-
CENTRAL UPPER MICHIGAN

CITY           SKY/WX    TMP DP  RH WIND       PRES   REMARKS
MANISTIQUE     CLOUDY    34  34  98 E8        29.55F FOG     WCI  27
ESCANABA       CLOUDY    35  35 100 E8        29.53F FOG     WCI  29
SAWYER-GWINN   CLOUDY    34  34 100 SE6       29.52F FOG     WCI  29
$$
MIZ001>003-009>011-084-212000-
WESTERN UPPER MICHIGAN

CITY           SKY/WX    TMP DP  RH WIND       PRES   REMARKS
IRON MOUNTAIN  FOG       35  33  92 E5        29.48F VSB 1/4 WCI  31
HOUGHTON       CLOUDY    35  33  92 E9        29.51S WCI  28
COPPER HARBOR    N/A     37  34  89 VRB5      29.55S WCI  33
IRONWOOD       LGT RAIN  37  36  93 E3        29.44F
$$

ABBREVIATIONS USED IN REMARKS
   TC - TEMPERATURE IN CELSIUS
  WCI - WIND CHILL INDEX
   HX - HEAT INDEX
  VSB - VISIBILITY





USA.gov is the U.S. government's official web portal to all federal, state and local government web resources and services.